Simultaneous Nadir Overpasses (SNOs) Predictions

Prediction of SNOs over PacNW region [( 10.00, 139.50) to ( 22.70, 165.60)] between AQUA and NPP Satellites:

Table of predicted SNOs over PacNW region for the next 30.0 days since TLE Epoch: 11/4/2016
Index Date (AQUA) Time (AQUA) AQUA Lat,Lon Date (NPP) Time (NPP) NPP Lat,Lon Distance(km) Time Diff (sec)
1 11/05/2016 15:58:56 22.59, 147.46 11/05/2016 16:02:24 23.40, 144.54 312.96 208
2 11/08/2016 02:41:54 22.69, 159.86 11/08/2016 02:38:24 26.79, 157.34 521.79 210
3 11/13/2016 15:09:28 22.63, 159.84 11/13/2016 15:11:42 23.23, 157.16 281.87 134
4 11/16/2016 03:31:19 22.69, 147.50 11/16/2016 03:27:52 22.31, 145.78 182.18 207
5 11/21/2016 15:58:53 22.64, 147.49 11/21/2016 16:02:22 23.53, 144.54 318.00 209
6 11/24/2016 02:41:50 22.68, 159.88 11/24/2016 02:38:20 26.59, 157.36 503.86 210
7 11/29/2016
